Weather History for KPIA - May, 2013

Change the Weather History Date:

Thursday, May 9, 2013

  Actual Average Record
Temperature  
Mean Temperature 66 °F 60 °F  
Max Temperature 71 °F 71 °F 94 °F (1895)
Min Temperature 61 °F 50 °F 31 °F (1966)
Degree Days  
Heating Degree Days 0 6  
Month to date heating degree days 27 63  
Since 1 July heating degree days 5719 5728  
Cooling Degree Days 1 1  
Month to date cooling degree days 10 9  
Year to date cooling degree days 19 23  
Growing Degree Days 16 (Base 50)    
Moisture  
Dew Point 59 °F    
Average Humidity 83    
Maximum Humidity 100    
Minimum Humidity 66    
Precipitation  
Precipitation 0.53 in 0.13 in 1.58 in (1981)
Month to date precipitation 2.02 1.23  
Year to date precipitation 19.13 11.23  
Snow  
Snow 0.00 in 0.00 in T in (1966)
Month to date snowfall 0.0 0.0  
Since 1 July snowfall 22.7 24.6  
Snow Depth 0.00 in    
Sea Level Pressure  
Sea Level Pressure 29.89 in    
Wind  
Wind Speed 7 mph (South)    
Max Wind Speed 24 mph    
Max Gust Speed 31 mph    
Visibility 6 miles    
Events Rain , Thunderstorm    
T = Trace of Precipitation, MM = Missing Value Source: NWS Daily Summary

Daily Weather History Graph

Daily Weather History Graph

Search for Another Location

Airport or City:

Trip Planner

Search our weather history database for the weather conditions in past years. The results will help you decide how hot, cold, wet, or windy it might be!

Date:

Astronomy

May. 09, 2013 Rise Set
Actual Time 5:47 AM CDT 8:03 PM CDT
Civil Twilight 5:17 AM CDT 8:33 PM CDT
Nautical Twilight 4:39 AM CDT 9:11 PM CDT
Astronomical Twilight 3:58 AM CDT 9:53 PM CDT
Moon 5:32 AM CDT (5/9) 7:58 PM CDT (5/9)
Length of Visible Light 15h 16m
Length of Day
14h 15m
Waning Crescent, 0% of the Moon is Illuminated
May 9
Waning Crescent
May 9
New
May 17
First Quarter
May 24
Full
May 31
Last Quarter

Hourly Weather History & Observations

Time (CDT) Temp. Dew Point Humidity Pressure Visibility Wind Dir Wind Speed Gust Speed Precip Events Conditions
12:54 AM 66.0 °F 55.0 °F 68% 29.96 in 10.0 mi SW 4.6 mph - N/A   Overcast
1:54 AM 64.9 °F 55.0 °F 70% 29.95 in 10.0 mi Calm Calm - N/A   Overcast
2:54 AM 64.0 °F 55.9 °F 75% 29.94 in 10.0 mi Calm Calm - 0.00 in   Overcast
3:54 AM 63.0 °F 55.9 °F 78% 29.94 in 10.0 mi Calm Calm - N/A   Overcast
4:54 AM 63.0 °F 57.0 °F 81% 29.93 in 10.0 mi South 4.6 mph - 0.00 in Rain Light Rain
5:54 AM 63.0 °F 57.0 °F 81% 29.94 in 10.0 mi WSW 5.8 mph - 0.00 in   Overcast
6:54 AM 62.1 °F 57.9 °F 86% 29.96 in 9.0 mi Calm Calm - 0.00 in   Overcast
7:37 AM 62.1 °F 57.9 °F 86% 29.99 in 1.8 mi West 6.9 mph - 0.01 in Rain Rain
7:50 AM 60.8 °F 57.2 °F 88% 29.98 in 3.0 mi Calm Calm - 0.07 in Rain Light Rain
7:54 AM 61.0 °F 57.9 °F 90% 29.97 in 4.0 mi Calm Calm - 0.08 in Rain Light Rain
8:54 AM 62.1 °F 59.0 °F 90% 29.96 in 7.0 mi SSE 6.9 mph - 0.01 in   Overcast
9:54 AM 64.9 °F 61.0 °F 87% 29.93 in 10.0 mi SE 9.2 mph - 0.00 in   Scattered Clouds
10:54 AM 68.0 °F 57.9 °F 70% 29.91 in 10.0 mi SE 12.7 mph - N/A   Partly Cloudy
11:54 AM 69.8 °F 57.2 °F 64% 29.93 in 10.0 mi SSE 15.0 mph - N/A   Mostly Cloudy
12:23 PM 66.0 °F 60.1 °F 81% 29.95 in 1.8 mi SSW 18.4 mph 28.8 mph 0.00 in Rain Heavy Rain
12:29 PM 63.0 °F 60.1 °F 90% 29.95 in 1.0 mi South 21.9 mph 31.1 mph 0.15 in Thunderstorm Thunderstorm
12:36 PM 63.0 °F 43.0 °F 48% 29.95 in 2.0 mi South 17.3 mph 31.1 mph 0.21 in Rain , Thunderstorm Thunderstorms and Rain
12:46 PM 63.0 °F 43.0 °F 48% 29.94 in 4.0 mi South 12.7 mph - 0.23 in Rain , Thunderstorm Thunderstorms and Rain
12:54 PM 63.0 °F 43.0 °F 48% 29.94 in 4.0 mi South 11.5 mph - 0.25 in Rain , Thunderstorm Thunderstorms and Rain
1:22 PM 62.1 °F 60.1 °F 93% 29.92 in 6.0 mi SE 9.2 mph - 0.07 in   Overcast
1:54 PM 62.1 °F 60.1 °F 93% 29.91 in 3.0 mi SSE 11.5 mph - 0.11 in   Overcast
2:20 PM 62.1 °F 60.1 °F 93% 29.91 in 6.0 mi SSE 13.8 mph - 0.02 in   Overcast
2:54 PM 63.0 °F 61.0 °F 93% 29.89 in 4.0 mi SE 10.4 mph - 0.03 in Rain Light Rain
3:03 PM 63.0 °F 61.0 °F 93% 29.88 in 6.0 mi SE 10.4 mph - 0.01 in Rain Light Rain
3:31 PM 64.0 °F 61.0 °F 90% 29.87 in 8.0 mi SE 10.4 mph 17.3 mph 0.01 in Rain Light Rain
3:54 PM 64.0 °F 61.0 °F 90% 29.86 in 9.0 mi SE 9.2 mph - 0.01 in Rain Light Rain
4:54 PM 64.0 °F 62.1 °F 93% 29.84 in 6.0 mi SSE 9.2 mph - 0.00 in Rain Light Rain
5:12 PM 64.9 °F 62.1 °F 90% 29.84 in 6.0 mi SSE 5.8 mph - 0.01 in Rain Light Rain
5:19 PM 64.9 °F 62.1 °F 90% 29.84 in 6.0 mi SSE 6.9 mph - 0.01 in Rain Light Rain
5:46 PM 64.9 °F 62.1 °F 90% 29.84 in 5.0 mi SSE 6.9 mph - 0.01 in Rain Light Rain
5:51 PM 64.4 °F 62.6 °F 94% 29.83 in 4.0 mi SSE 5.8 mph - 0.01 in Rain Light Rain
5:54 PM 64.0 °F 62.1 °F 93% 29.83 in 4.0 mi SSE 5.8 mph - 0.01 in Rain Light Rain
6:08 PM 64.0 °F 62.1 °F 93% 29.83 in 2.0 mi SSE 5.8 mph - 0.01 in Rain Light Rain
6:23 PM 64.0 °F 62.1 °F 93% 29.82 in 4.0 mi SSE 5.8 mph - 0.03 in Rain Light Rain
6:42 PM 64.0 °F 62.1 °F 93% 29.83 in 7.0 mi South 6.9 mph - 0.03 in Rain Light Rain
6:54 PM 64.0 °F 62.1 °F 93% 29.83 in 7.0 mi South 5.8 mph - 0.03 in   Overcast
7:54 PM 63.0 °F 61.0 °F 93% 29.83 in 2.5 mi SSW 5.8 mph - N/A   Partly Cloudy
8:13 PM 63.0 °F 61.0 °F 93% 29.84 in 1.8 mi SW 6.9 mph - N/A   Scattered Clouds
8:44 PM 63.0 °F 62.1 °F 97% 29.83 in 3.0 mi South 5.8 mph - N/A   Scattered Clouds
8:54 PM 63.0 °F 62.1 °F 97% 29.82 in 3.0 mi SSW 4.6 mph - N/A   Scattered Clouds
9:54 PM 63.0 °F 61.0 °F 93% 29.83 in 6.0 mi SSW 6.9 mph - 0.00 in   Scattered Clouds
10:28 PM 62.1 °F 61.0 °F 96% 29.83 in 7.0 mi SW 9.2 mph - N/A   Scattered Clouds
10:45 PM 63.0 °F 61.0 °F 93% 29.83 in 9.0 mi WSW 10.4 mph - N/A   Mostly Cloudy
10:54 PM 63.0 °F 61.0 °F 93% 29.82 in 10.0 mi WSW 9.2 mph - N/A   Overcast
11:29 PM 63.0 °F 60.1 °F 90% 29.82 in 10.0 mi WSW 9.2 mph - N/A   Overcast
11:54 PM 62.1 °F 60.1 °F 93% 29.81 in 10.0 mi WSW 9.2 mph - N/A   Overcast